Weather reports worldwide

Advertisment
Coningsby, United Kingdom (3391): temperature & dewpoint: 20.04.2018 23:00:00 - 26.04.2018 23:00:00 (BST)Coningsby, United Kingdom (3391): temperature -20cm & temperature -100cm: 20.04.2018 23:00:00 - 26.04.2018 23:00:00 (BST)Coningsby, United Kingdom (3391): wind speed & gusts: 20.04.2018 23:00:00 - 26.04.2018 23:00:00 (BST)Coningsby, United Kingdom (3391): wind direction: 20.04.2018 23:00:00 - 26.04.2018 23:00:00 (BST)Coningsby, United Kingdom (3391): reduced air pressure: 20.04.2018 23:00:00 - 26.04.2018 23:00:00 (BST)Coningsby, United Kingdom (3391): visibility: 20.04.2018 23:00:00 - 26.04.2018 23:00:00 (BST)Coningsby, United Kingdom (3391): precipitation: 20.04.2018 23:00:00 - 26.04.2018 23:00:00 (BST)
Date & Time tt [°C] td [°C] tt -20cm [°C] tt -100cm [°C] ff [km/h] ff [kn] fx [km/h] fx [kn] dd ppp [hPa] vv [km] rr [mm]
26.04.2018 23:00:00 8,1 1,8 - - 9 5 - - W 1013,1 10 0,0
26.04.2018 22:00:00 6,3 1,9 - - 11 6 - - WSW 1013,2 10 0,0
26.04.2018 21:00:00 8,4 1,6 - - 13 7 - - WSW 1013,2 10 0,0
26.04.2018 20:00:00 11,9 1,6 - - 11 6 - - W 1012,9 10 0,0
26.04.2018 19:00:00 12,4 0,2 - - 22 12 - - WSW 1012,6 10 0,0
26.04.2018 18:00:00 13,8 -1,3 - - 29 16 50 27 W 1012,6 10 0,0
26.04.2018 17:00:00 13,7 -1,9 - - 28 15 50 27 W 1012,4 10 0,0
26.04.2018 16:00:00 13,4 -1,1 - - 39 21 50 27 W 1012,5 10 0,0
26.04.2018 15:00:00 13,6 0,4 - - 34 18 50 27 WSW 1012,7 10 0,0
26.04.2018 14:00:00 13,4 3,1 - - 34 18 55 30 WSW 1012,9 10 0,0
26.04.2018 13:00:00 12,9 3,0 - - 34 18 54 29 WSW 1013,1 10 0,0
26.04.2018 12:00:00 12,4 2,8 - - 34 18 50 27 W 1012,9 10 0,0
26.04.2018 11:00:00 11,4 2,2 - - 34 18 50 27 W 1012,8 10 0,0
26.04.2018 10:00:00 10,8 3,3 9,2 10,4 35 19 50 27 W 1012,4 10 0,0
26.04.2018 09:00:00 9,9 4,8 - - 31 17 48 26 WSW 1012,3 10 0,0
26.04.2018 08:00:00 8,5 4,6 - - 24 13 - - WSW 1012,0 10 0,0
26.04.2018 07:00:00 6,9 4,4 - - 24 13 - - SW 1011,7 10 0,0
26.04.2018 06:00:00 5,9 3,8 - - 18 10 - - SW 1011,4 10 0,0
26.04.2018 05:00:00 5,8 4,0 - - 18 10 - - SW 1011,3 10 0,0
26.04.2018 04:00:00 6,1 3,9 - - 18 10 - - WSW 1011,1 10 0,0
26.04.2018 03:00:00 6,5 4,0 - - 22 12 - - WSW 1010,9 10 0,0
26.04.2018 02:00:00 6,9 4,1 - - 22 12 - - WSW 1010,7 10 0,0
26.04.2018 01:00:00 6,9 4,1 - - 18 10 - - WSW 1010,7 10 0,0
26.04.2018 00:00:00 7,1 4,3 - - 18 10 - - WSW 1010,5 10 0,0
25.04.2018 23:00:00 7,3 5,6 - - 8 4 - - WSW 1010,2 10 0,0
25.04.2018 22:00:00 8,7 4,3 - - 18 10 - - WNW 1010,1 10 0,0
25.04.2018 21:00:00 9,4 4,6 - - 24 13 - - W 1009,3 10 0,0
25.04.2018 20:00:00 9,2 5,4 - - 21 11 - - W 1008,7 10 1,0
25.04.2018 19:00:00 8,3 5,8 - - 18 10 - - W 1008,7 3,5 5,4
25.04.2018 18:00:00 10,1 7,1 - - 16 9 - - WSW 1008,5 10 0,4
25.04.2018 17:00:00 8,8 4,9 - - 11 6 48 26 WNW 1008,9 10 2,4
25.04.2018 16:00:00 12,4 7,3 - - 16 9 - - SSW 1008,3 35 1,0
25.04.2018 15:00:00 13,8 6,3 - - 24 13 - - WSW 1008,8 10 0,0
25.04.2018 14:00:00 10,8 5,5 - - 21 11 - - WSW 1009,3 10 1,6
25.04.2018 13:00:00 13,6 3,2 - - 31 17 46 25 W 1009,2 10 0,0
25.04.2018 12:00:00 12,4 3,1 - - 28 15 - - W 1009,3 10 0,0
25.04.2018 11:00:00 11,6 2,7 - - 26 14 - - W 1009,7 10 0,0
25.04.2018 10:00:00 10,9 4,9 9,7 10,4 26 14 - - W 1009,6 10 0,0
25.04.2018 09:00:00 10,2 5,7 - - 28 15 - - W 1009,1 10 0,0
25.04.2018 08:00:00 8,4 5,9 - - 15 8 - - W 1008,8 10 0,0
25.04.2018 07:00:00 7,8 6,0 - - 18 10 - - WSW 1008,4 10 0,0
25.04.2018 06:00:00 6,8 5,6 - - 15 8 - - WSW 1007,9 10 0,0
25.04.2018 05:00:00 7,2 5,7 - - 9 5 - - WSW 1007,8 10 0,0
25.04.2018 04:00:00 7,5 5,3 - - 15 8 - - W 1007,7 10 0,0
25.04.2018 03:00:00 8,3 6,9 - - 15 8 - - W 1007,1 10 0,0
25.04.2018 02:00:00 9,1 7,3 - - 16 9 - - WNW 1006,8 10 0,0
25.04.2018 01:00:00 9,4 7,9 - - 21 11 - - WNW 1006,3 10 0,0
25.04.2018 00:00:00 9,5 8,3 - - 21 11 - - NW 1005,4 10 0,0
24.04.2018 23:00:00 10,1 9,4 - - 26 14 67 36 WNW 1004,4 6 2,2
24.04.2018 22:00:00 12,9 10,9 - - 29 16 46 25 SW 1003,4 10 0,0
24.04.2018 21:00:00 13,3 11,3 - - 31 17 - - SW 1003,5 10 0,0
24.04.2018 20:00:00 12,4 11,8 - - 18 10 - - S 1004,1 10 0,2
24.04.2018 19:00:00 11,5 10,9 - - 16 9 - - SSE 1005,3 9 0,4
24.04.2018 18:00:00 11,1 10,1 - - 9 5 - - SSW 1007,1 8 2,8
24.04.2018 17:00:00 11,0 10,1 - - 13 7 - - S 1008,4 5 3,0
24.04.2018 16:00:00 11,0 10,1 - - 21 11 - - SSW 1010,1 6 2,0
24.04.2018 15:00:00 11,1 9,9 - - 21 11 - - SSW 1011,1 7 1,0
24.04.2018 14:00:00 12,0 9,4 - - 21 11 - - SW 1011,9 10 0,4
24.04.2018 13:00:00 12,8 6,0 - - 24 13 - - WSW 1012,7 10 0,0
24.04.2018 12:00:00 12,7 4,9 - - 24 13 - - SW 1013,1 10 0,0
24.04.2018 11:00:00 12,3 5,2 - - 24 13 - - WSW 1013,2 10 0,0
24.04.2018 10:00:00 11,6 4,7 9,7 10,4 18 10 - - WSW 1013,6 10 0,0
24.04.2018 09:00:00 11,1 4,9 - - 28 15 - - WSW 1013,3 10 0,0
24.04.2018 08:00:00 10,5 5,9 - - 18 10 - - WSW 1012,9 10 0,0
24.04.2018 07:00:00 10,3 6,6 - - 22 12 - - WSW 1012,5 10 0,0
24.04.2018 06:00:00 10,7 7,7 - - 18 10 - - WSW 1012,1 10 0,0
24.04.2018 05:00:00 11,0 8,6 - - 9 5 - - W 1011,5 10 0,0
24.04.2018 04:00:00 11,1 8,4 - - 24 13 - - WSW 1011,3 10 0,0
24.04.2018 03:00:00 11,1 8,1 - - 18 10 - - WSW 1011,3 10 0,0
24.04.2018 02:00:00 11,7 7,9 - - 24 13 - - WSW 1011,4 10 0,0
24.04.2018 01:00:00 11,8 7,5 - - 22 12 - - WSW 1011,5 10 0,0
24.04.2018 00:00:00 11,8 7,0 - - 24 13 - - SW 1011,1 10 0,0
23.04.2018 23:00:00 12,0 6,1 - - 28 15 - - SW 1011,4 10 0,0
23.04.2018 22:00:00 12,2 5,9 - - 28 15 - - SW 1011,9 10 0,0
23.04.2018 21:00:00 12,5 5,9 - - 31 17 50 27 WSW 1011,7 10 0,0
23.04.2018 20:00:00 13,6 5,2 - - 28 15 - - WSW 1011,4 40 0,0
23.04.2018 19:00:00 14,5 4,4 - - 28 15 46 25 SW 1011,6 40 0,0
23.04.2018 18:00:00 14,8 4,3 - - 29 16 46 25 WSW 1012,0 40 0,0
23.04.2018 17:00:00 14,2 3,8 - - 34 18 - - SW 1012,4 40 0,0
23.04.2018 16:00:00 14,1 3,5 - - 28 15 - - WSW 1013,2 40 0,0
23.04.2018 15:00:00 14,2 2,8 - - 34 18 - - W 1013,9 40 0,0
23.04.2018 14:00:00 14,4 2,9 - - 34 18 48 26 WSW 1013,7 40 0,0
23.04.2018 13:00:00 13,5 3,5 - - 34 18 46 25 WSW 1013,8 40 0,0
23.04.2018 12:00:00 12,9 3,2 - - 29 16 48 26 W 1014,1 40 0,0
23.04.2018 11:00:00 12,5 2,8 - - 31 17 - - W 1013,7 40 0,0
23.04.2018 10:00:00 12,0 5,2 10,0 10,2 28 15 - - W 1013,7 40 0,0
23.04.2018 09:00:00 11,4 5,0 - - 31 17 - - W 1013,2 40 0,0
23.04.2018 08:00:00 10,4 6,0 - - 24 13 - - WSW 1012,7 40 0,0
23.04.2018 07:00:00 9,1 6,3 - - 16 9 - - WSW 1012,2 35 0,0
23.04.2018 06:00:00 8,0 5,8 - - 18 10 - - WSW 1011,4 30 0,0
23.04.2018 05:00:00 7,7 5,6 - - 18 10 - - SW 1011,1 35 0,0
23.04.2018 04:00:00 8,8 5,8 - - 21 11 - - WSW 1011,0 35 0,0
23.04.2018 03:00:00 9,5 5,9 - - 18 10 - - WSW 1011,1 35 0,0
23.04.2018 02:00:00 9,1 5,6 - - 24 13 - - W 1010,6 45 0,0
23.04.2018 01:00:00 9,4 5,5 - - 18 10 - - WSW 1010,5 10 0,0
23.04.2018 00:00:00 8,6 5,9 - - 11 6 - - WSW 1010,4 10 0,0
22.04.2018 23:00:00 10,4 6,0 - - 15 8 - - W 1009,9 10 0,0
22.04.2018 22:00:00 13,0 5,9 - - 18 10 - - W 1009,3 10 0,0
22.04.2018 21:00:00 14,5 6,5 - - 28 15 - - W 1008,5 10 0,0
22.04.2018 20:00:00 16,2 6,9 - - 24 13 - - W 1007,5 10 0,0
22.04.2018 19:00:00 17,2 7,1 - - 26 14 - - WSW 1006,8 40 0,0
22.04.2018 18:00:00 18,4 7,9 - - 22 12 - - WSW 1006,5 30 0,0
22.04.2018 17:00:00 19,1 9,1 - - 21 11 - - W 1006,7 25 0,0
22.04.2018 16:00:00 17,8 9,0 - - 22 12 - - W 1006,9 25 0,0
22.04.2018 15:00:00 18,7 9,9 - - 24 13 - - W 1007,0 20 0,0
22.04.2018 14:00:00 20,6 9,7 - - 21 11 - - WSW 1006,7 30 0,0
22.04.2018 13:00:00 21,3 10,9 - - 24 13 - - WSW 1006,8 10 0,0
22.04.2018 12:00:00 20,3 11,1 - - 29 16 - - SW 1006,9 10 0,0
22.04.2018 11:00:00 20,0 14,2 - - 22 12 - - SSW 1007,1 10 0,0
22.04.2018 10:00:00 18,2 13,5 9,9 10,0 26 14 - - SSW 1007,4 10 0,0
22.04.2018 09:00:00 17,0 13,8 - - 18 10 - - S 1007,9 10 0,0
22.04.2018 08:00:00 14,9 12,7 - - 13 7 - - SE 1008,1 10 0,0
22.04.2018 07:00:00 13,0 12,3 - - 9 5 - - ESE 1008,7 7 0,0
22.04.2018 06:00:00 13,1 12,3 - - 9 5 - - E 1009,3 7 0,0
22.04.2018 05:00:00 13,4 12,7 - - 9 5 - - ESE 1010,3 7 1,0
22.04.2018 04:00:00 14,1 12,9 - - 4 2 - - WSW 1010,9 7 1,0
22.04.2018 03:00:00 14,6 11,8 - - 18 10 - - SSE 1012,5 10 0,0
22.04.2018 02:00:00 13,8 11,5 - - 11 6 - - SSE 1013,1 10 0,0
22.04.2018 01:00:00 14,0 10,8 - - 13 7 - - SE 1013,3 10 0,0
22.04.2018 00:00:00 13,9 10,4 - - 13 7 - - S 1014,6 10 0,0
21.04.2018 23:00:00 12,7 9,8 - - 11 6 - - ESE 1014,6 10 0,0
21.04.2018 22:00:00 13,7 10,5 - - 13 7 - - ESE 1014,8 10 0,0
21.04.2018 21:00:00 15,2 11,2 - - 9 5 - - E 1015,0 10 0,0
21.04.2018 20:00:00 18,1 11,7 - - 15 8 - - SE 1015,1 30 0,0
21.04.2018 19:00:00 19,8 12,6 - - 13 7 - - SE 1015,7 25 0,0
21.04.2018 18:00:00 19,6 12,0 - - 11 6 - - SE 1016,5 25 0,0
21.04.2018 17:00:00 20,4 10,4 - - 15 8 - - S 1017,5 25 0,0
21.04.2018 16:00:00 21,0 9,1 - - 16 9 - - S 1018,2 30 0,0
21.04.2018 15:00:00 19,3 10,2 - - 26 14 - - ESE 1019,2 30 0,0
21.04.2018 14:00:00 18,5 9,8 - - 22 12 - - SE 1020,2 30 0,0
21.04.2018 13:00:00 17,0 9,6 - - 22 12 - - ESE 1021,0 10 0,0
21.04.2018 12:00:00 15,3 8,8 - - 18 10 - - ESE 1022,0 10 0,0
21.04.2018 11:00:00 14,3 9,7 - - 15 8 - - E 1022,7 10 0,0
21.04.2018 10:00:00 13,2 9,6 9,7 9,7 16 9 - - ESE 1023,1 10 0,0
21.04.2018 09:00:00 12,1 7,8 - - 13 7 - - E 1023,1 10 0,0
21.04.2018 08:00:00 9,9 5,7 - - 4 2 - - E 1023,4 10 0,0
21.04.2018 07:00:00 8,3 4,7 - - 4 2 - - NNE 1023,4 35 0,0
21.04.2018 06:00:00 8,0 4,9 - - 5 3 - - NNW 1023,3 30 0,0
21.04.2018 05:00:00 8,3 6,2 - - 4 2 - - NNW 1023,2 30 0,0
21.04.2018 04:00:00 8,0 6,3 - - 4 2 - - NW 1023,6 20 0,0
21.04.2018 03:00:00 9,3 8,1 - - 4 2 - - NNW 1023,8 20 0,0
21.04.2018 02:00:00 9,3 8,3 - - 2 1 - - E 1024,1 15 0,0
21.04.2018 01:00:00 10,5 8,7 - - 4 2 - - NNW 1024,4 10 0,0
21.04.2018 00:00:00 10,6 9,3 - - 2 1 - - ESE 1024,4 10 0,0
20.04.2018 23:00:00 11,5 9,5 - - 5 3 - - E 1024,2 10 0,0

tt = temperature
td = dewpoint
tt -20cm = temperature -20cm
tt -100cm = temperature -100cm
ff = wind speed
fx = gusts
dd = wind direction
ppp = reduced air pressure
vv = visibility
rr = precipitation

Next stations